Location: Hilton Head Island
(32.2163°N, 80.7526°W)
Time: 02:45:51
(UTC-04:00)

Vanguard 2 Rocket - Pass Details

Date: 16 February 2026
Orbit: 553 x 3286 km, 32.9° (Epoch: 9 March)

Event Time Altitude Azimuth Distance (km) Brightness Sun altitude
Rises 12:29:54 0° 236° (WSW) 7,236 11.8 45.6°
Reaches altitude 10° 12:34:51 10° 234° (SW) 6,224 11.6 45.6°
Maximum altitude 12:54:18 68° 157° (SSE) 2,900 10.8 45.5°
Drops below altitude 10° 13:07:18 10° 78° (ENE) 4,380 10.3 45.1°
Sets 13:10:07 0° 76° (ENE) 5,073 10.5 44.9°
